Weather History for Port Hardy, BC

Change the Weather History Date:

Saturday, March 2, 2013

  Actual Average Record
Temperature  
Mean Temperature 42 °F -  
Max Temperature 47 °F 47 °F 51 °F (2005)
Min Temperature 37 °F 35 °F 32 °F (1998)
Degree Days  
Heating Degree Days 23    
Moisture  
Dew Point 39 °F    
Average Humidity 88    
Maximum Humidity 100    
Minimum Humidity 57    
Precipitation  
Precipitation 0.08 in 0.19 in - ()
Sea Level Pressure  
Sea Level Pressure 30.14 in    
Wind  
Wind Speed 3 mph ()    
Max Wind Speed 8 mph    
Max Gust Speed -    
Visibility 17.4 miles    
Events Rain    
Averages and records for this station are not official NWS values.
T = Trace of Precipitation, MM = Missing Value Source: Averaged Metar Reports

Daily Weather History Graph

Daily Weather History Graph

Search for Another Location

Airport:

Trip Planner

Search our weather history database for the weather conditions in past years. The results will help you decide how hot, cold, wet, or windy it might be!

Date:

Astronomy

Mar. 02, 2013 Rise Set
Actual Time 7:10 AM PST 6:13 PM PST
Civil Twilight 6:37 AM PST 6:46 PM PST
Nautical Twilight 5:59 AM PST 7:24 PM PST
Astronomical Twilight 5:21 AM PST 8:02 PM PST
Moon No Moon Rise 9:05 AM PST (3/2)
Length of Visible Light 12h 08m
Length of Day
11h 02m
Waning Gibbous, 73% of the Moon is Illuminated
Mar 2
Waning Gibbous
Mar 4
Last Quarter
Mar 11
New
Mar 19
First Quarter
Mar 27
Full

Hourly Weather History & Observations

Time (PST) Temp. Windchill Dew Point Humidity Pressure Visibility Wind Dir Wind Speed Gust Speed Precip Events Conditions
12:00 AM 44.6 °F - 44.6 °F 100% 30.15 in 15.0 mi Calm Calm - N/A   Overcast
1:00 AM 44.6 °F - 42.8 °F 93% 30.15 in 15.0 mi Calm Calm - N/A   Overcast
3:00 AM 44.6 °F 42.2 °F 42.8 °F 93% 30.14 in 15.0 mi WSW 4.6 mph - N/A   Overcast
4:00 AM 42 °F - 42 °F 100% 30.13 in 15 mi SW 4.6 mph - -   Overcast
5:00 AM 42.8 °F 41.1 °F 42.8 °F 100% 30.13 in 15.0 mi West 3.5 mph - N/A   Mostly Cloudy
5:23 AM - - - N/A% - 15.0 mi West 4.6 mph - N/A Rain Light Rain Showers
6:00 AM 44.6 °F - 42.8 °F 93% 30.13 in 15.0 mi Calm Calm - N/A Rain Light Rain Showers
7:00 AM 42.8 °F 40.1 °F 41.0 °F 93% 30.11 in 15.0 mi West 4.6 mph - N/A   Overcast
8:00 AM 42.8 °F 39.3 °F 41.0 °F 93% 30.12 in 20.0 mi West 5.8 mph - N/A   Overcast
9:00 AM 42.8 °F 39.3 °F 41.0 °F 93% 30.12 in 20.0 mi West 5.8 mph - N/A   Overcast
9:17 AM - - - N/A% - 20.0 mi West 5.8 mph - N/A Rain Light Rain Showers
10:00 AM 43 °F - 40 °F 86% 30.12 in 19 mi West 5.8 mph - - Rain Light Rain Showers
10:00 AM 42.8 °F 39.3 °F 41.0 °F 93% 30.12 in 20.0 mi West 5.8 mph - N/A Rain Light Rain Showers
11:00 AM 42.8 °F 40.1 °F 41.0 °F 93% 30.12 in 20.0 mi SSW 4.6 mph - N/A   Mostly Cloudy
11:50 AM - - - N/A% - 20.0 mi WSW 6.9 mph - N/A   Mostly Cloudy
12:00 PM 44.6 °F 40.2 °F 39.2 °F 81% 30.13 in 20.0 mi WSW 8.1 mph - N/A   Mostly Cloudy
1:00 PM 46.4 °F 45.2 °F 39.2 °F 76% 30.12 in 20.0 mi SW 3.5 mph - N/A   Mostly Cloudy
2:00 PM 46.4 °F 43.5 °F 37.4 °F 71% 30.12 in 20.0 mi West 5.8 mph - N/A   Mostly Cloudy
3:00 PM 42.8 °F 40.1 °F 37.4 °F 81% 30.13 in 20.0 mi West 4.6 mph - N/A Rain Light Rain Showers
4:00 PM 45 °F - 35 °F 57% 30.14 in 19 mi SW 5.8 mph - - Rain Light Rain Showers
4:00 PM 44.6 °F 40.7 °F 35.6 °F 71% 30.14 in 20.0 mi SSW 6.9 mph - N/A Rain Light Rain Showers
5:00 PM 41.0 °F 37.1 °F 35.6 °F 81% 30.15 in 15.0 mi SW 5.8 mph - N/A Rain Light Rain Showers
5:49 PM - - - N/A% - 20.0 mi WSW 3.5 mph - N/A   Scattered Clouds
6:00 PM 39.2 °F 34.2 °F 35.6 °F 87% 30.15 in 20.0 mi South 6.9 mph - N/A   Scattered Clouds
7:00 PM 37.4 °F 33.8 °F 35.6 °F 93% 30.17 in 15.0 mi SW 4.6 mph - N/A   Partly Cloudy
8:00 PM 37.4 °F - 35.6 °F 93% 30.18 in 15.0 mi Calm Calm - N/A   Scattered Clouds
9:00 PM 37.4 °F 32.8 °F 33.8 °F 87% 30.19 in 15.0 mi SSW 5.8 mph - N/A   Partly Cloudy
10:00 PM 37.4 °F - 33.8 °F 87% 30.21 in 15.0 mi Calm Calm - N/A   Scattered Clouds
11:00 PM 37.4 °F 32.8 °F 35.6 °F 93% 30.22 in 15.0 mi SW 5.8 mph - N/A   Mostly Cloudy
11:20 PM - - - N/A% - 15.0 mi WNW 6.9 mph - N/A Rain Light Rain Showers